| time (UTC) | temp F | wind direction | speed knots | gust knots | rain 1hr in | rain 24hr in | rain mn in | humidity % | barometer mb |
| 20260504023604 | 33 | 330 | 0.0 | 0.0 | 0.00 | 0.01 | 0.01 | 83 | 1008.1 |
| 20260504022102 | 33 | 330 | 0.0 | 0.0 | 0.00 | 0.01 | 0.01 | 83 | 1008.1 |
| 20260504020602 | 34 | 330 | 0.0 | 0.0 | 0.00 | 0.01 | 0.01 | 81 | 1008.0 |
| 20260504015834 | 35 | 330 | 0.0 | 0.0 | 0.00 | 0.01 | 0.01 | 80 | 1008.0 |
| 20260504013601 | 35 | 330 | 0.0 | 0.0 | 0.00 | 0.01 | 0.01 | 79 | 1007.9 |
| 20260504012830 | 36 | 330 | 0.0 | 0.0 | 0.00 | 0.01 | 0.01 | 78 | 1007.8 |
| 20260504010558 | 37 | 330 | 0.0 | 0.0 | 0.00 | 0.01 | 0.01 | 75 | 1007.7 |
| 20260504005058 | 38 | 330 | 0.0 | 0.0 | 0.00 | 0.01 | 0.01 | 74 | 1007.4 |
| 20260504003556 | 40 | 330 | 0.0 | 0.0 | 0.00 | 0.01 | 0.01 | 71 | 1007.3 |
| 20260504002052 | 41 | 330 | 0.0 | 0.0 | 0.00 | 0.01 | 0.01 | 69 | 1007.2 |
| 20260504000552 | 42 | 330 | 0.0 | 0.0 | 0.00 | 0.01 | 0.01 | 65 | 1007.0 |
| 20260503235052 | 44 | 330 | 0.0 | 0.0 | 0.00 | 0.01 | 0.01 | 63 | 1006.8 |
| 20260503233554 | 45 | 330 | 0.0 | 3.5 | 0.00 | 0.01 | 0.01 | 61 | 1006.8 |
| 20260503232046 | 46 | 319 | 1.7 | 3.5 | 0.00 | 0.01 | 0.01 | 56 | 1006.7 |
| 20260503231317 | 47 | 5 | 0.9 | 4.3 | 0.00 | 0.01 | 0.01 | 54 | 1006.6 |
| 20260503225042 | 48 | 331 | 0.9 | 7.0 | 0.00 | 0.01 | 0.01 | 50 | 1006.7 |
| 20260503223541 | 49 | 305 | 1.7 | 7.0 | 0.00 | 0.01 | 0.01 | 46 | 1006.5 |
| 20260503222034 | 49 | 14 | 2.6 | 7.0 | 0.00 | 0.01 | 0.01 | 46 | 1006.5 |
| 20260503220536 | 49 | 203 | 1.7 | 10.4 | 0.00 | 0.01 | 0.01 | 46 | 1006.4 |
| 20260503215800 | 49 | 180 | 2.6 | 10.4 | 0.00 | 0.01 | 0.01 | 46 | 1006.3 |
| 20260503213529 | 49 | 331 | 2.6 | 10.4 | 0.00 | 0.01 | 0.01 | 46 | 1006.4 |
| 20260503212023 | 49 | 283 | 3.5 | 11.3 | 0.00 | 0.01 | 0.01 | 46 | 1006.5 |
| 20260503210523 | 49 | 338 | 3.5 | 12.2 | 0.00 | 0.01 | 0.01 | 48 | 1006.4 |
| 20260503205019 | 48 | 15 | 3.5 | 7.8 | 0.00 | 0.01 | 0.01 | 48 | 1006.2 |
| 20260503203520 | 48 | 325 | 1.7 | 7.0 | 0.00 | 0.01 | 0.01 | 50 | 1006.3 |
| 20260503202020 | 48 | 0 | 1.7 | 10.4 | 0.00 | 0.01 | 0.01 | 49 | 1006.3 |
| 20260503200519 | 48 | 310 | 2.6 | 9.6 | 0.00 | 0.01 | 0.01 | 49 | 1006.3 |
| 20260503195018 | 49 | 355 | 3.5 | 10.4 | 0.00 | 0.01 | 0.01 | 45 | 1006.5 |
| 20260503193518 | 48 | 5 | 3.5 | 9.6 | 0.00 | 0.01 | 0.01 | 49 | 1006.5 |
| 20260503192020 | 48 | 259 | 3.5 | 10.4 | 0.00 | 0.01 | 0.01 | 47 | 1006.4 |
| 20260503190515 | 48 | 5 | 3.5 | 13.9 | 0.00 | 0.01 | 0.01 | 45 | 1006.4 |
| 20260503185016 | 48 | 23 | 3.5 | 12.2 | 0.00 | 0.01 | 0.01 | 44 | 1006.4 |
| 20260503183517 | 49 | 301 | 3.5 | 10.4 | 0.00 | 0.01 | 0.01 | 44 | 1006.4 |
| 20260503182747 | 49 | 336 | 4.3 | 12.2 | 0.00 | 0.01 | 0.01 | 45 | 1006.5 |
| 20260503180517 | 50 | 333 | 5.2 | 12.2 | 0.00 | 0.01 | 0.01 | 45 | 1006.2 |
| 20260503175022 | 51 | 5 | 3.5 | 13.0 | 0.00 | 0.01 | 0.01 | 40 | 1005.9 |
| 20260503175016 | 49 | 47 | 3.5 | 10.4 | 0.00 | 0.01 | 0.01 | 45 | 1006.2 |
| 20260503173515 | 49 | 271 | 4.3 | 12.2 | 0.00 | 0.01 | 0.01 | 45 | 1006.1 |
| 20260503170515 | 50 | 5 | 2.6 | 13.0 | 0.00 | 0.01 | 0.01 | 42 | 1006.0 |
| 20260503150454 | 48 | 350 | 2.6 | 8.7 | 0.00 | 0.01 | 0.01 | 50 | 1007.1 |
| 20260503110422 | 39 | 22 | 1.7 | 6.1 | 0.00 | 0.04 | 0.01 | 83 | 1007.8 |
| 20260503090406 | 37 | 21 | 0.9 | 4.3 | 0.01 | 0.07 | 0.01 | 91 | 1008.0 |
| 20260503080404 | 35 | 355 | 0.0 | 0.0 | 0.00 | 0.08 | 0.00 | 95 | 1008.4 |
| 20260503071133 | 34 | 5 | 0.0 | 0.0 | 0.00 | 0.11 | 0.00 | 95 | 1008.6 |
| 20260503053352 | 33 | 5 | 0.0 | 0.0 | 0.00 | 0.12 | 0.00 | 93 | 1009.6 |
| 20260503051853 | 33 | 5 | 0.0 | 0.0 | 0.00 | 0.12 | 0.00 | 92 | 1009.6 |
| 20260503050350 | 33 | 5 | 0.0 | 0.0 | 0.00 | 0.12 | 0.00 | 91 | 1009.7 |
| 20260503044850 | 34 | 5 | 0.0 | 0.0 | 0.00 | 0.12 | 0.00 | 91 | 1009.9 |
| 20260503043350 | 34 | 5 | 0.0 | 0.0 | 0.00 | 0.12 | 0.00 | 90 | 1009.9 |
| 20260503041851 | 35 | 5 | 0.0 | 0.0 | 0.00 | 0.12 | 0.00 | 89 | 1010.1 |
| 20260503040351 | 36 | 5 | 0.0 | 0.0 | 0.00 | 0.12 | 0.00 | 89 | 1010.3 |
| 20260503034848 | 36 | 5 | 0.0 | 0.0 | 0.00 | 0.12 | 0.12 | 88 | 1010.3 |
| 20260503033348 | 37 | 5 | 0.0 | 0.0 | 0.00 | 0.12 | 0.12 | 87 | 1010.5 |
| 20260503031846 | 38 | 5 | 0.0 | 0.0 | 0.00 | 0.12 | 0.12 | 87 | 1010.4 |
| 20260503030346 | 39 | 5 | 0.0 | 0.0 | 0.00 | 0.12 | 0.12 | 85 | 1010.5 |
| 20260503024837 | 40 | 5 | 0.0 | 0.0 | 0.00 | 0.12 | 0.12 | 85 | 1010.4 |